Tracking 27086 objects as of 22-Mar-2023
HD Live streaming from Space Station
objects crossing your sky now

PETITSAT

Track PETITSAT now!
10-day predictions


NORAD ID: 55130
Int'l Code: 1998-067UX
Perigee: 330.8 km
Apogee: 345.4 km
Inclination: 51.6 °
Period: 91.1 minutes
Semi major axis: 6709 km
RCS: Unknown
Launch date: November 20, 1998
Source: United States (US)
Launch site: TYURATAM MISSILE AND SPACE COMPLEX (TTMTR)
Your satellite tracking list
Your tracking list is empty




NASA's NSSDC Master Catalog

Two Line Element Set (TLE):
1 55130U 98067UX  23081.31124138  .00478341  00000-0  23978-2 0  9999
2 55130  51.6342  32.6138 0010859 135.1140 225.0742 15.79822074 12952
Source of the keplerian elements: AFSPC